Time,TemperatureF,DewpointF,PressureIn,WindDirection,WindDirectionDegrees,WindSpeedMPH,WindSpeedGustMPH,Humidity,HourlyPrecipIn,Conditions,Clouds,dailyrainin,SoftwareType,DateUTC
2013-06-08 00:07:00,64.0,58.4,29.81,North,0,0.0,0.0,82,0.00,,,-99.99,Weather View 32 v70,2013-06-08 07:07:00,
2013-06-08 00:15:00,64.0,58.7,29.81,North,0,0.0,0.0,83,0.00,,,-99.99,Weather View 32 v70,2013-06-08 07:15:00,
2013-06-08 00:22:00,64.0,58.7,29.81,North,0,0.0,0.0,83,0.00,,,-99.99,Weather View 32 v70,2013-06-08 07:22:00,
2013-06-08 00:37:00,64.0,58.4,29.80,North,0,0.0,0.0,82,0.00,,,-99.99,Weather View 32 v70,2013-06-08 07:37:00,
2013-06-08 00:52:00,63.0,57.4,29.80,North,0,0.0,0.0,82,0.00,,,-99.99,Weather View 32 v70,2013-06-08 07:52:00,
2013-06-08 01:07:00,62.0,56.8,29.79,North,0,0.0,0.0,83,0.00,,,-99.99,Weather View 32 v70,2013-06-08 08:07:00,
2013-06-08 01:15:00,60.0,54.8,29.79,North,0,0.0,0.0,83,0.00,,,-99.99,Weather View 32 v70,2013-06-08 08:15:00,
2013-06-08 01:22:00,60.0,54.8,29.79,North,0,0.0,0.0,83,0.00,,,-99.99,Weather View 32 v70,2013-06-08 08:22:00,
2013-06-08 01:37:00,61.0,57.4,29.78,North,0,0.0,0.0,88,0.00,,,-99.99,Weather View 32 v70,2013-06-08 08:37:00,
2013-06-08 01:52:00,62.0,58.4,29.78,North,0,0.0,0.0,88,0.00,,,-99.99,Weather View 32 v70,2013-06-08 08:52:00,
2013-06-08 02:07:00,63.0,59.4,29.78,North,0,0.0,0.0,88,0.00,,,-99.99,Weather View 32 v70,2013-06-08 09:07:00,
2013-06-08 02:15:00,64.0,59.7,29.78,North,0,0.0,0.0,86,0.00,,,-99.99,Weather View 32 v70,2013-06-08 09:15:00,
2013-06-08 02:22:00,64.0,59.7,29.78,North,0,0.0,0.0,86,0.00,,,-99.99,Weather View 32 v70,2013-06-08 09:22:00,
2013-06-08 02:37:00,63.0,58.4,29.78,North,0,0.0,0.0,85,0.00,,,-99.99,Weather View 32 v70,2013-06-08 09:37:00,
2013-06-08 02:52:00,63.0,58.1,29.78,North,0,0.0,0.0,84,0.00,,,-99.99,Weather View 32 v70,2013-06-08 09:52:00,
2013-06-08 03:07:00,62.0,57.1,29.78,North,0,0.0,0.0,84,0.00,,,-99.99,Weather View 32 v70,2013-06-08 10:07:00,
2013-06-08 03:15:00,62.0,57.1,29.78,North,0,0.0,0.0,84,0.00,,,-99.99,Weather View 32 v70,2013-06-08 10:15:00,
2013-06-08 03:22:00,62.0,57.1,29.78,North,0,0.0,0.0,84,0.00,,,-99.99,Weather View 32 v70,2013-06-08 10:22:00,
2013-06-08 03:37:00,61.0,56.4,29.77,North,0,0.0,0.0,85,0.00,,,-99.99,Weather View 32 v70,2013-06-08 10:37:00,
2013-06-08 03:52:00,60.0,55.5,29.77,North,0,0.0,0.0,85,0.00,,,-99.99,Weather View 32 v70,2013-06-08 10:52:00,
2013-06-08 04:07:00,61.0,57.4,29.77,North,0,0.0,0.0,88,0.00,,,-99.99,Weather View 32 v70,2013-06-08 11:07:00,
2013-06-08 04:15:00,59.0,55.1,29.76,North,0,0.0,0.0,87,0.00,,,-99.99,Weather View 32 v70,2013-06-08 11:15:00,
2013-06-08 04:22:00,59.0,55.1,29.76,North,0,0.0,0.0,87,0.00,,,-99.99,Weather View 32 v70,2013-06-08 11:22:00,
2013-06-08 04:37:00,59.0,56.1,29.76,North,0,0.0,0.0,90,0.00,,,-99.99,Weather View 32 v70,2013-06-08 11:37:00,
2013-06-08 04:52:00,58.0,54.1,29.76,North,0,0.0,0.0,87,0.00,,,-99.99,Weather View 32 v70,2013-06-08 11:52:00,
2013-06-08 05:07:00,59.0,55.8,29.75,North,0,0.0,0.0,89,0.00,,,-99.99,Weather View 32 v70,2013-06-08 12:07:00,
2013-06-08 05:15:00,59.0,55.4,29.75,North,0,0.0,0.0,88,0.00,,,-99.99,Weather View 32 v70,2013-06-08 12:15:00,
2013-06-08 05:22:00,59.0,55.4,29.75,North,0,0.0,0.0,88,0.00,,,-99.99,Weather View 32 v70,2013-06-08 12:22:00,
2013-06-08 05:37:00,59.0,55.1,29.75,North,0,0.0,0.0,87,0.00,,,-99.99,Weather View 32 v70,2013-06-08 12:37:00,
2013-06-08 05:52:00,59.0,55.4,29.75,North,0,0.0,0.0,88,0.00,,,-99.99,Weather View 32 v70,2013-06-08 12:52:00,
2013-06-08 06:07:00,60.0,56.4,29.75,North,0,0.0,0.0,88,0.00,,,-99.99,Weather View 32 v70,2013-06-08 13:07:00,
2013-06-08 06:22:00,60.0,56.4,29.75,North,0,0.0,0.0,88,0.00,,,-99.99,Weather View 32 v70,2013-06-08 13:22:00,
2013-06-08 06:38:00,62.0,57.8,29.76,North,0,0.0,0.0,86,0.00,,,-99.99,Weather View 32 v70,2013-06-08 13:38:00,
2013-06-08 06:52:00,63.0,57.7,29.76,North,0,0.0,0.0,83,0.00,,,-99.99,Weather View 32 v70,2013-06-08 13:52:00,
2013-06-08 07:07:00,63.0,58.1,29.76,North,0,0.0,0.0,84,0.00,,,-99.99,Weather View 32 v70,2013-06-08 14:07:00,
2013-06-08 07:22:00,64.0,59.1,29.76,North,0,0.0,0.0,84,0.00,,,-99.99,Weather View 32 v70,2013-06-08 14:22:00,
2013-06-08 07:37:00,66.0,60.3,29.77,North,0,0.0,0.0,82,0.00,,,-99.99,Weather View 32 v70,2013-06-08 14:37:00,
2013-06-08 07:38:00,66.0,60.3,29.77,North,0,0.0,0.0,82,0.00,,,-99.99,Weather View 32 v70,2013-06-08 14:38:00,
2013-06-08 07:52:00,67.0,60.2,29.77,North,0,0.0,0.0,79,0.00,,,-99.99,Weather View 32 v70,2013-06-08 14:52:00,
2013-06-08 08:07:00,68.0,60.1,29.77,North,0,0.0,0.0,76,0.00,,,-99.99,Weather View 32 v70,2013-06-08 15:07:00,
2013-06-08 08:22:00,69.0,60.3,29.77,North,0,0.0,0.0,74,0.00,,,-99.99,Weather View 32 v70,2013-06-08 15:22:00,
2013-06-08 08:37:00,69.0,59.2,29.78,North,0,0.0,0.0,71,0.00,,,-99.99,Weather View 32 v70,2013-06-08 15:37:00,
2013-06-08 08:52:00,69.0,59.6,29.78,North,0,0.0,0.0,72,0.00,,,-99.99,Weather View 32 v70,2013-06-08 15:52:00,
2013-06-08 09:07:00,70.0,60.1,29.78,North,0,0.0,0.0,71,0.00,,,-99.99,Weather View 32 v70,2013-06-08 16:07:00,
2013-06-08 09:22:00,70.0,60.1,29.78,North,0,0.0,0.0,71,0.00,,,-99.99,Weather View 32 v70,2013-06-08 16:22:00,
2013-06-08 09:30:00,71.0,60.7,29.78,North,0,0.0,0.0,70,0.00,,,-99.99,Weather View 32 v70,2013-06-08 16:30:00,
2013-06-08 09:38:00,71.0,60.7,29.78,North,0,0.0,0.0,70,0.00,,,-99.99,Weather View 32 v70,2013-06-08 16:38:00,
2013-06-08 09:52:00,71.0,59.9,29.78,North,0,0.0,0.0,68,0.00,,,-99.99,Weather View 32 v70,2013-06-08 16:52:00,
2013-06-08 10:07:00,73.0,61.4,29.78,North,0,0.0,0.0,67,0.00,,,-99.99,Weather View 32 v70,2013-06-08 17:07:00,
2013-06-08 10:22:00,73.0,60.1,29.78,North,0,0.0,0.0,64,0.00,,,-99.99,Weather View 32 v70,2013-06-08 17:22:00,
2013-06-08 10:30:00,74.0,59.2,29.79,North,0,0.0,0.0,60,0.00,,,-99.99,Weather View 32 v70,2013-06-08 17:30:00,
2013-06-08 10:37:00,74.0,59.2,29.79,North,0,0.0,0.0,60,0.00,,,-99.99,Weather View 32 v70,2013-06-08 17:37:00,
2013-06-08 10:52:00,74.0,58.7,29.79,North,0,0.0,0.0,59,0.00,,,-99.99,Weather View 32 v70,2013-06-08 17:52:00,
2013-06-08 11:07:00,74.0,59.2,29.79,North,0,0.0,0.0,60,0.00,,,-99.99,Weather View 32 v70,2013-06-08 18:07:00,
2013-06-08 11:23:00,75.0,59.7,29.79,North,0,0.0,0.0,59,0.00,,,-99.99,Weather View 32 v70,2013-06-08 18:23:00,
2013-06-08 11:30:00,76.0,60.6,29.79,North,0,0.0,0.0,59,0.00,,,-99.99,Weather View 32 v70,2013-06-08 18:30:00,
2013-06-08 11:37:00,76.0,60.6,29.79,North,0,0.0,0.0,59,0.00,,,-99.99,Weather View 32 v70,2013-06-08 18:37:00,
2013-06-08 11:52:00,78.0,61.0,29.79,North,0,0.0,0.0,56,0.00,,,-99.99,Weather View 32 v70,2013-06-08 18:52:00,
2013-06-08 12:08:00,80.0,60.2,29.79,North,0,0.0,0.0,51,0.00,,,-99.99,Weather View 32 v70,2013-06-08 19:08:00,
2013-06-08 12:22:00,82.0,60.9,29.79,North,0,0.0,0.0,49,0.00,,,-99.99,Weather View 32 v70,2013-06-08 19:22:00,
2013-06-08 12:30:00,81.0,60.0,29.79,North,0,0.0,0.0,49,0.00,,,-99.99,Weather View 32 v70,2013-06-08 19:30:00,
2013-06-08 12:37:00,81.0,60.0,29.79,North,0,0.0,0.0,49,0.00,,,-99.99,Weather View 32 v70,2013-06-08 19:37:00,
2013-06-08 12:53:00,80.0,58.5,29.79,North,0,0.0,0.0,48,0.00,,,-99.99,Weather View 32 v70,2013-06-08 19:53:00,
2013-06-08 13:07:00,80.0,57.9,29.79,North,0,0.0,0.0,47,0.00,,,-99.99,Weather View 32 v70,2013-06-08 20:07:00,
2013-06-08 13:23:00,81.0,58.8,29.79,North,0,0.0,0.0,47,0.00,,,-99.99,Weather View 32 v70,2013-06-08 20:23:00,
2013-06-08 13:30:00,82.0,59.7,29.79,North,0,0.0,0.0,47,0.00,,,-99.99,Weather View 32 v70,2013-06-08 20:30:00,
2013-06-08 13:37:00,82.0,59.7,29.79,North,0,0.0,0.0,47,0.00,,,-99.99,Weather View 32 v70,2013-06-08 20:37:00,
2013-06-08 13:52:00,82.0,59.1,29.79,North,0,0.0,0.0,46,0.00,,,-99.99,Weather View 32 v70,2013-06-08 20:52:00,
2013-06-08 14:07:00,82.0,60.3,29.80,North,0,0.0,0.0,48,0.00,,,-99.99,Weather View 32 v70,2013-06-08 21:07:00,
2013-06-08 14:23:00,81.0,59.4,29.80,North,0,0.0,0.0,48,0.00,,,-99.99,Weather View 32 v70,2013-06-08 21:23:00,
2013-06-08 14:30:00,80.0,57.9,29.79,North,0,0.0,0.0,47,0.00,,,-99.99,Weather View 32 v70,2013-06-08 21:30:00,
2013-06-08 14:37:00,80.0,57.9,29.79,North,0,0.0,0.0,47,0.00,,,-99.99,Weather View 32 v70,2013-06-08 21:37:00,
2013-06-08 14:53:00,81.0,58.8,29.79,North,0,0.0,0.0,47,0.00,,,-99.99,Weather View 32 v70,2013-06-08 21:53:00,
2013-06-08 15:08:00,81.0,59.4,29.80,North,0,0.0,0.0,48,0.00,,,-99.99,Weather View 32 v70,2013-06-08 22:08:00,
2013-06-08 15:22:00,85.0,61.8,29.80,North,0,0.0,0.0,46,0.00,,,-99.99,Weather View 32 v70,2013-06-08 22:22:00,
2013-06-08 15:30:00,83.0,61.2,29.80,North,0,0.0,0.0,48,0.00,,,-99.99,Weather View 32 v70,2013-06-08 22:30:00,
2013-06-08 15:38:00,83.0,61.2,29.80,North,0,0.0,0.0,48,0.00,,,-99.99,Weather View 32 v70,2013-06-08 22:38:00,
2013-06-08 15:52:00,87.0,59.7,29.81,North,0,0.0,0.0,40,0.00,,,-99.99,Weather View 32 v70,2013-06-08 22:52:00,
2013-06-08 16:08:00,85.0,60.6,29.81,North,0,0.0,0.0,44,0.00,,,-99.99,Weather View 32 v70,2013-06-08 23:08:00,
2013-06-08 16:23:00,79.0,60.3,29.82,North,0,0.0,0.0,53,0.00,,,-99.99,Weather View 32 v70,2013-06-08 23:23:00,
2013-06-08 16:30:00,78.0,61.0,29.82,North,0,0.0,0.0,56,0.00,,,-99.99,Weather View 32 v70,2013-06-08 23:30:00,
2013-06-08 16:37:00,78.0,61.0,29.82,North,0,0.0,0.0,56,0.00,,,-99.99,Weather View 32 v70,2013-06-08 23:37:00,
2013-06-08 16:52:00,79.0,61.4,29.82,North,0,0.0,0.0,55,0.00,,,-99.99,Weather View 32 v70,2013-06-08 23:52:00,
2013-06-08 17:07:00,85.0,60.6,29.82,North,0,0.0,0.0,44,0.00,,,-99.99,Weather View 32 v70,2013-06-09 00:07:00,
2013-06-08 17:22:00,78.0,59.4,29.82,North,0,0.0,0.0,53,0.00,,,-99.99,Weather View 32 v70,2013-06-09 00:22:00,
2013-06-08 17:30:00,78.0,60.0,29.82,North,0,0.0,0.0,54,0.00,,,-99.99,Weather View 32 v70,2013-06-09 00:30:00,
2013-06-08 17:37:00,78.0,60.0,29.82,North,0,0.0,0.0,54,0.00,,,-99.99,Weather View 32 v70,2013-06-09 00:37:00,
2013-06-08 17:52:00,85.0,57.9,29.83,North,0,0.0,0.0,40,0.00,,,-99.99,Weather View 32 v70,2013-06-09 00:52:00,
2013-06-08 18:08:00,84.0,57.0,29.83,North,0,0.0,0.0,40,0.00,,,-99.99,Weather View 32 v70,2013-06-09 01:08:00,
2013-06-08 18:22:00,81.0,58.2,29.84,North,0,0.0,0.0,46,0.00,,,-99.99,Weather View 32 v70,2013-06-09 01:22:00,
2013-06-08 18:30:00,80.0,56.7,29.84,North,0,0.0,0.0,45,0.00,,,-99.99,Weather View 32 v70,2013-06-09 01:30:00,
2013-06-08 18:37:00,80.0,56.7,29.84,North,0,0.0,0.0,45,0.00,,,-99.99,Weather View 32 v70,2013-06-09 01:37:00,
2013-06-08 18:52:00,78.0,56.1,29.85,North,0,0.0,0.0,47,0.00,,,-99.99,Weather View 32 v70,2013-06-09 01:52:00,
2013-06-08 19:07:00,77.0,56.3,29.85,North,0,0.0,0.0,49,0.00,,,-99.99,Weather View 32 v70,2013-06-09 02:07:00,
2013-06-08 19:23:00,76.0,56.5,29.85,North,0,0.0,0.0,51,0.00,,,-99.99,Weather View 32 v70,2013-06-09 02:23:00,
2013-06-08 19:30:00,74.0,56.2,29.86,North,0,0.0,0.0,54,0.00,,,-99.99,Weather View 32 v70,2013-06-09 02:30:00,
2013-06-08 19:37:00,74.0,56.2,29.86,North,0,0.0,0.0,54,0.00,,,-99.99,Weather View 32 v70,2013-06-09 02:37:00,
2013-06-08 19:52:00,72.0,55.9,29.86,North,0,0.0,0.0,57,0.00,,,-99.99,Weather View 32 v70,2013-06-09 02:52:00,
2013-06-08 20:07:00,70.0,55.4,29.86,North,0,0.0,0.0,60,0.00,,,-99.99,Weather View 32 v70,2013-06-09 03:07:00,
2013-06-08 20:22:00,69.0,56.3,29.86,North,0,0.0,0.0,64,0.00,,,-99.99,Weather View 32 v70,2013-06-09 03:22:00,
2013-06-08 20:30:00,67.0,55.6,29.86,North,0,0.0,0.0,67,0.00,,,-99.99,Weather View 32 v70,2013-06-09 03:30:00,
2013-06-08 20:37:00,67.0,55.6,29.86,North,0,0.0,0.0,67,0.00,,,-99.99,Weather View 32 v70,2013-06-09 03:37:00,
2013-06-08 20:53:00,65.0,55.3,29.86,North,0,0.0,0.0,71,0.00,,,-99.99,Weather View 32 v70,2013-06-09 03:53:00,
2013-06-08 21:07:00,63.0,54.6,29.85,North,0,0.0,0.0,74,0.00,,,-99.99,Weather View 32 v70,2013-06-09 04:07:00,
2013-06-08 21:22:00,63.0,54.9,29.85,North,0,0.0,0.0,75,0.00,,,-99.99,Weather View 32 v70,2013-06-09 04:22:00,
2013-06-08 21:30:00,62.0,54.7,29.85,North,0,0.0,0.0,77,0.00,,,-99.99,Weather View 32 v70,2013-06-09 04:30:00,
2013-06-08 21:37:00,62.0,54.7,29.85,North,0,0.0,0.0,77,0.00,,,-99.99,Weather View 32 v70,2013-06-09 04:37:00,
2013-06-08 21:53:00,62.0,55.0,29.85,North,0,0.0,0.0,78,0.00,,,-99.99,Weather View 32 v70,2013-06-09 04:53:00,
2013-06-08 22:07:00,61.0,54.4,29.85,North,0,0.0,0.0,79,0.00,,,-99.99,Weather View 32 v70,2013-06-09 05:07:00,
2013-06-08 22:22:00,61.0,54.8,29.85,North,0,0.0,0.0,80,0.00,,,-99.99,Weather View 32 v70,2013-06-09 05:22:00,
2013-06-08 22:30:00,61.0,54.8,29.84,North,0,0.0,0.0,80,0.00,,,-99.99,Weather View 32 v70,2013-06-09 05:30:00,
2013-06-08 22:37:00,61.0,54.8,29.84,North,0,0.0,0.0,80,0.00,,,-99.99,Weather View 32 v70,2013-06-09 05:37:00,
2013-06-08 22:52:00,60.0,54.5,29.84,North,0,0.0,0.0,82,0.00,,,-99.99,Weather View 32 v70,2013-06-09 05:52:00,
2013-06-08 23:07:00,60.0,54.8,29.84,North,0,0.0,0.0,83,0.00,,,-99.99,Weather View 32 v70,2013-06-09 06:07:00,
2013-06-08 23:22:00,60.0,54.5,29.84,North,0,0.0,0.0,82,0.00,,,-99.99,Weather View 32 v70,2013-06-09 06:22:00,
2013-06-08 23:30:00,60.0,54.8,29.84,North,0,0.0,0.0,83,0.00,,,-99.99,Weather View 32 v70,2013-06-09 06:30:00,
2013-06-08 23:38:00,60.0,54.8,29.84,North,0,0.0,0.0,83,0.00,,,-99.99,Weather View 32 v70,2013-06-09 06:38:00,
2013-06-08 23:53:00,60.0,54.8,29.84,North,0,0.0,0.0,83,0.00,,,-99.99,Weather View 32 v70,2013-06-09 06:53:00,